SCP
0 0 0 0 0 0 0 0 0 0 0 0 0 0 0 0 0 0 0 0 0 0 0 0 0 0 0 0 0 0 0 0 0 0 0 0 0 0 0 0 0 0 0
0 0 0 0 0 0 0 0 0 0 0 0 0 0 0 0 0 0 0 0 0 0 0 0 0 0 0 0 0 0 0 0 0 0 0 0 0 0 0 0 0 0 0
0 0 0 0 0 0 0 0 0 0 0 0 0 0 0 0 0 0 0 0 0 0 0 0 0 0 0 0 0 0 0 0 0 0 0 0 0 0 0 0 0 0 0
0 0 0 0 0 0 0 0 0 0 0 0 0 0 0 0 0 0 0 0 0 0 0 0 0 0 0 0 0 0 0 0 0 0 0 0 0 0 0 0 0 0 0
0 0 0 0 0 0 0 0 0 0 0 0 0 0 0 0 0 0 0 0 0 0 0 0 0 0 0 0 0 0 0 0 0 0 0 0 0 0 0 0 0 0 0
0 0 0 0 0 0 0 0 0 0 0 0 0 0 0 0 0 0 0 0 0 0 0 0 0 0 0 0 0 0 0 0 0 0 0 0 0 0 0 0 0 0 0
0 0 0 0 0 0 0 0 0 0 0 0 0 0 0 0 0 0 0 0 0 0 0 0 0 0 0 0 0 0 0 0 0 0 0 0 0 0 0 0 0 0 0
0 0 0 0 0 0 0 0 0 0 0 0 0 0 0 0 0 0 0 0 0 0 0 0 0 0 0 0 0 0 0 0 0 0 0 0 0 0 0 0 0 0 0
0 0 0 0 0 0 0 0 0 0 0 0 0 0 0 0 0 0 0 0 0 0 0 0 0 0 0 0 0 0 0 0 0 0 0 0 0 0 0 0 0 0 0
0 0 0 0 0 0 0 0 0 0 0 0 0 0 0 0 0 0 0 0 0 0 0 0 0 0 0 0 0 0 0 0 0 0 0 0 0 0 0 0 0 0 0
0 0 0 0 0 0 0 0 0 0 0 0 0 0 0 0 0 0 0 0 0 0 0 0 0 0 0 0 0 0 0 0 0 0 0 0 0 0 0 0 0 0 0
0 0 0 0 0 0 0 0 0 0 0 0 0 0 0 0 0 0 0 0 0 0 0 0 0 0 0 0 0 0 0 0 0 0 0 0 0 0 0 0 0 0 0
0 0 0 0 0 0 0 0 0 0 0 0 0 0 0 0 0 0 0 0 0 0 0 0 0 0 0 0 0 0 0 0 0 0 0 0 0 0 0 0 0 0 0
0 0 0 0 0 0 0 0 0 0 0 0 0 0 0 0 0 0 0 0 0 0 0 0 0 0 0 0 0 0 0 0 0 0 0 0 0 0 0 0 0 0 0
0 0 0 0 0 0 0 0 0 0 0 0 0 0 0 0 0 0 0 0 0 0 0 0 0 0 0 0 0 0 0 0 0 0 0 0 0 0 0 0 0 0 0
0 0 0 0 0 0 0 0 0 0 0 0 0 0 0 0 0 0 0 0 0 0 0 0 0 0 0 0 0 0 0 0 0 0 0 0 0 0 0 0 0 0 0
0 0 0 0 0 0 0 0 0 0 0 0 0 0 0 0 0 0 0 0 0 0 0 0 0 0 0 0 0 0 0 0 0 0 0 0 0 0 0 0 0 0 0
0 0 0 0 0 0 0 0 0 0 0 0 1 1 1 1 1 0 0 0 0 0 0 0 0 0 0 0 0 0 0 0 0 0 0 0 0 0 0 0 0 0 0
0 0 0 0 0 0 0 0 0 0 0 1 1 1 1 1 1 1 1 0 0 0 0 0 0 0 0 0 0 0 0 0 0 0 0 0 0 0 0 0 0 0 0
0 0 0 0 0 0 0 0 0 0 1 1 1 1 1 1 1 1 1 0 0 0 0 0 0 0 0 0 0 0 0 0 0 0 0 0 0 0 0 0 0 0 0
0 0 0 0 0 0 0 0 0 0 0 1 1 1 1 0 0 0 0 0 0 0 0 0 0 0 0 0 0 0 0 0 0 0 0 0 0 0 0 0 0 0 0
0 0 0 0 0 0 0 0 0 0 0 1 1 1 1 1 0 0 0 0 0 0 0 0 0 0 0 0 0 0 0 0 0 0 0 0 0 0 0 0 0 0 0
1 1 1 0 0 0 0 0 0 0 0 1 1 1 1 1 1 0 0 0 0 0 0 0 0 0 0 0 0 0 0 0 0 0 0 0 0 0 0 0 0 0 0
1 1 1 0 0 0 0 0 0 0 0 1 1 1 1 1 1 1 0 0 0 0 0 0 0 0 0 0 0 0 0 0 0 0 0 0 0 0 0 0 0 0 0
1 1 1 1 0 0 0 0 0 0 0 0 1 1 1 1 0 0 0 1 0 0 0 0 0 0 0 0 0 0 0 0 0 0 0 0 0 0 0 0 0 0 0
1 1 1 0 1 0 0 0 0 0 0 0 0 0 0 0 0 0 0 0 0 0 0 0 0 0 0 0 0 0 0 0 0 0 0 0 0 0 0 0 0 0 0
Wind_Speed
1 1 1 1 1 1 2 2 2 3 3 3 2 2 1 2 1 2 4 7 5 4 4 3 3 3 3 4 5 5 6 6 6 5 5 5 6 6 6 5 5 5 5
1 1 1 1 1 1 1 2 3 2 2 2 2 2 1 2 2 2 2 5 6 4 3 3 3 3 3 3 4 4 5 6 6 5 5 5 5 5 6 6 5 5 4
1 0 1 1 1 2 3 2 3 3 3 3 3 3 3 3 3 3 2 1 3 6 5 3 2 2 3 3 3 3 3 4 5 6 5 5 5 5 5 5 5 5 4
0 1 0 1 1 2 3 3 2 2 2 2 2 2 3 3 3 3 2 2 1 2 4 4 2 2 2 3 3 3 3 3 3 4 4 5 5 5 4 4 4 4 4
0 0 1 2 1 2 2 2 3 2 2 2 2 3 3 2 2 2 2 2 2 1 1 5 5 3 2 2 2 2 2 3 3 3 3 4 5 5 4 4 3 3 3
1 1 2 2 1 2 2 2 3 3 2 2 2 3 2 2 2 2 1 2 2 1 1 1 3 4 4 3 2 2 2 2 2 3 4 4 4 4 4 4 3 3 3
1 1 1 2 1 2 3 3 2 3 2 2 2 2 3 3 2 2 1 1 2 2 1 1 1 1 3 5 3 2 2 2 2 2 3 4 5 5 5 5 4 3 3
1 1 1 1 2 2 3 3 2 1 2 2 1 1 2 3 2 2 2 1 1 1 2 1 1 1 0 1 4 3 1 1 2 2 2 2 3 4 4 5 5 4 3
1 1 1 1 1 1 2 2 2 2 1 1 0 1 0 1 1 2 2 2 1 1 1 2 1 1 1 1 2 4 2 0 1 1 1 1 2 2 3 4 4 4 4
1 1 1 1 0 1 1 2 2 1 1 1 2 0 1 1 1 1 1 2 2 1 1 1 1 1 1 1 2 3 3 2 1 1 2 3 3 2 2 3 3 4 3
1 1 1 1 1 1 1 0 1 1 1 1 0 1 2 1 2 1 1 1 1 1 1 1 1 1 1 1 1 3 4 2 1 1 2 2 2 2 2 2 2 3 3
1 1 1 1 1 1 1 2 1 2 1 1 1 1 1 1 1 1 2 2 1 1 1 1 0 1 1 1 2 5 4 3 2 2 2 2 2 2 2 1 1 1 2
1 1 1 1 1 1 2 2 2 2 2 2 2 1 1 1 1 1 2 2 2 1 1 1 1 1 0 1 2 5 5 3 3 2 2 2 2 2 2 2 1 1 1
0 1 1 1 2 2 2 2 2 2 2 2 2 1 1 1 1 2 2 2 2 2 2 2 1 1 0 1 3 2 3 4 3 2 3 3 3 3 4 3 3 2 2
1 2 2 2 2 2 3 3 2 3 3 3 3 3 2 2 2 2 2 3 3 3 2 2 2 2 1 1 2 1 1 4 4 3 3 3 3 4 4 3 3 3 2
1 2 2 2 2 3 3 3 3 3 3 3 2 2 3 2 2 3 3 3 3 3 2 2 2 2 1 1 2 1 1 4 4 4 4 4 4 4 3 3 2 2 2
2 2 2 2 2 3 3 3 3 3 4 3 3 3 3 3 3 3 3 3 3 3 3 2 2 2 3 2 1 2 3 3 3 6 5 5 4 4 3 3 2 2 2
3 2 2 2 3 3 3 3 3 3 3 4 4 4 4 3 4 3 3 4 3 3 4 3 2 2 3 3 3 3 2 2 2 7 7 6 5 4 4 3 3 2 2
2 2 2 2 2 2 2 3 3 3 3 3 4 4 4 4 4 3 4 4 4 4 3 4 4 2 3 3 3 3 3 2 2 5 8 8 7 6 5 4 4 3 2
2 2 2 2 2 2 3 3 3 3 3 3 4 4 4 5 5 4 4 4 4 4 4 4 4 3 3 3 4 3 3 3 3 3 3 5 7 8 7 6 5 4 4
3 3 3 3 3 3 3 2 3 3 4 4 4 4 4 3 2 3 4 4 4 4 4 4 4 4 3 4 4 4 3 3 3 3 3 4 5 5 6 8 7 6 5
3 3 3 3 4 3 1 1 4 4 4 4 4 5 5 5 4 4 4 4 4 5 5 4 4 4 4 5 4 4 3 3 3 3 4 4 4 4 4 4 7 8 6
3 3 4 4 4 2 2 3 4 5 5 4 5 4 5 3 5 5 5 5 6 6 6 6 6 6 5 5 5 6 5 5 4 3 4 4 4 4 4 4 10 10 8
3 3 3 4 4 3 3 3 4 6 5 5 5 5 5 4 4 4 5 5 6 6 6 7 6 6 5 4 6 6 6 6 5 4 5 5 4 4 4 4 11 12 10
3 3 4 4 4 3 3 4 4 5 4 5 5 5 5 5 3 4 6 5 5 5 4 4 3 3 3 4 5 5 5 6 5 5 5 6 4 4 4 5 8 13 12
3 4 3 4 4 4 3 4 6 5 4 4 4 5 4 4 3 5 6 6 6 6 5 5 5 6 7 7 8 7 6 6 6 5 5 5 4 4 4 4 4 6 8
Wind_Direction
91 97 98 107 153 136 158 157 146 146 154 145 126 118 127 118 113 119 116 125 137 147 154 158 167 173 183 194 201 201 200 203 202 200 205 212 217 218 215 212 215 215 216
72 97 156 165 154 153 128 163 149 149 138 131 138 128 129 117 108 112 123 132 141 144 150 159 168 169 177 186 190 194 204 210 207 203 206 212 217 221 217 214 217 216 219
81 230 149 174 143 154 157 161 144 144 147 145 139 134 124 112 111 109 105 108 138 140 140 145 156 163 161 166 175 183 194 199 205 201 206 212 214 216 218 214 214 215 212
51 295 60 117 149 160 152 152 143 130 123 127 126 126 116 121 122 116 110 107 77 103 131 134 135 149 152 160 174 182 192 195 200 201 205 207 209 205 202 205 210 208 207
53 360 55 74 140 129 137 143 120 119 121 119 129 130 123 120 117 123 122 117 111 99 107 124 124 115 138 153 176 186 194 198 198 199 195 202 206 199 199 197 185 191 207
73 17 94 78 99 108 112 101 110 111 111 111 109 103 107 109 117 111 124 110 109 116 112 103 139 138 143 145 163 181 187 205 208 209 209 207 202 200 194 190 184 190 203
92 62 52 101 98 98 102 115 116 128 123 115 120 118 115 114 103 113 101 89 111 115 96 77 59 90 146 152 160 172 199 221 217 221 219 210 209 209 205 190 191 193 202
115 140 90 114 111 117 120 120 122 113 123 132 151 157 149 140 126 106 107 114 99 107 111 117 96 85 11 123 111 131 155 223 234 232 223 212 204 193 191 196 199 193 184
99 66 100 71 101 149 116 133 144 136 131 147 197 314 312 92 111 117 105 96 85 66 80 96 104 113 132 90 111 122 129 129 237 242 213 108 111 155 182 186 187 179 177
100 117 120 113 161 119 123 181 125 171 183 168 145 89 357 38 231 155 141 115 115 110 44 22 47 111 129 127 103 81 115 112 91 97 106 109 100 114 141 168 178 175 173
121 119 137 140 182 184 136 153 140 227 217 221 162 155 158 167 230 225 170 150 137 102 87 61 13 15 70 115 109 97 117 115 101 112 124 123 127 124 137 157 174 187 189
144 137 148 165 201 185 169 194 203 188 219 267 273 238 199 191 197 207 196 184 169 139 117 70 358 345 43 83 87 90 103 105 98 104 119 125 126 122 123 137 145 158 186
153 150 188 209 208 181 190 200 199 208 205 212 229 238 243 243 228 224 218 195 177 183 179 186 197 228 201 116 105 105 106 105 100 105 107 108 112 112 109 111 110 116 181
194 160 211 217 225 219 213 203 216 200 189 201 213 232 233 229 228 225 221 206 202 204 201 194 195 185 131 112 89 153 122 119 120 122 117 114 110 108 108 104 94 82 81
200 203 223 223 229 229 229 227 222 208 197 208 204 207 226 218 225 227 224 232 236 230 212 192 204 171 178 134 124 186 145 118 139 138 137 132 123 116 111 106 97 89 83
215 226 237 235 240 240 233 232 224 201 205 205 209 222 238 233 228 229 230 237 248 252 245 196 199 181 173 184 137 206 162 141 149 154 151 144 137 127 123 117 109 103 97
217 223 234 242 247 243 237 232 234 218 213 210 216 218 229 239 238 234 229 229 232 238 230 209 193 161 185 215 186 218 194 198 151 154 158 152 148 145 141 139 132 119 105
223 222 228 233 245 244 239 232 228 224 221 221 224 229 231 227 227 244 234 231 232 229 229 222 215 195 207 202 201 229 216 199 165 146 160 163 162 161 161 158 152 143 131
227 225 225 232 237 243 245 241 238 236 235 237 235 233 234 235 234 231 236 231 228 218 216 217 220 205 216 205 207 217 215 225 214 165 170 171 173 175 174 171 168 164 156
222 227 228 235 234 234 239 237 235 239 241 242 242 239 238 236 232 230 230 232 232 223 215 223 213 207 209 199 217 216 209 211 226 200 183 180 176 184 185 181 176 169 167
228 225 230 229 231 231 231 237 245 237 239 240 242 242 236 236 259 251 251 233 227 226 221 221 216 211 207 202 216 222 223 220 216 213 215 204 193 199 189 186 183 179 176
235 231 235 238 241 248 112 236 259 250 241 241 242 242 229 211 208 220 249 258 254 238 234 233 229 225 221 219 222 231 226 227 231 209 232 225 213 216 203 191 167 175 183
226 235 244 243 249 243 192 224 237 255 245 245 246 244 247 219 206 219 212 218 234 244 242 245 244 243 230 223 226 226 229 239 248 217 226 230 220 226 215 173 160 175 186
235 238 246 251 253 238 198 223 230 242 248 246 247 244 245 240 229 223 223 221 227 228 228 233 241 244 244 232 229 236 234 234 236 224 223 242 224 228 222 192 172 182 191
243 247 244 248 251 244 200 200 221 242 239 244 246 245 243 236 205 215 229 227 233 238 225 224 238 239 243 234 237 234 227 230 235 218 217 243 232 230 223 212 185 186 193
243 251 250 255 259 260 187 194 219 245 240 244 238 236 228 238 219 213 230 229 232 239 235 215 216 221 224 220 217 229 233 238 247 236 203 228 231 230 233 217 208 193 200